Charleston, SC

10:52 AM EDT on March 23, 2017 (GMT -0400)
Charleston Executive

Weather History for KJZI - February, 2013

Change the Weather History Date:

Thursday, February 7, 2013

  Actual Average (KCHS) Record (KCHS)
Temperature  
Mean Temperature 54 °F -  
Max Temperature 60 °F 58 °F 79 °F (1999)
Min Temperature 48 °F 37 °F 19 °F (1978)
Degree Days  
Heating Degree Days 11    
Growing Degree Days 4 (Base 50)    
Moisture  
Dew Point 54 °F    
Average Humidity 92    
Maximum Humidity 100    
Minimum Humidity 82    
Precipitation  
Precipitation 1.10 in - - ()
Sea Level Pressure  
Sea Level Pressure 30.03 in    
Wind  
Wind Speed 5 mph (NE)    
Max Wind Speed 17 mph    
Max Gust Speed 23 mph    
Visibility 6 miles    
Events Rain    
Averages and records for this station are not official NWS values.
T = Trace of Precipitation, MM = Missing Value Source: NWS Daily Summary

Daily Weather History Graph

Daily Weather History Graph

Search for Another Location

Airport or City:

Trip Planner

Search our weather history database for the weather conditions in past years. The results will help you decide how hot, cold, wet, or windy it might be!

Date:

Astronomy

Feb. 07, 2013 Rise Set
Actual Time 7:10 AM EST 5:58 PM EST
Civil Twilight 6:44 AM EST 6:24 PM EST
Nautical Twilight 6:15 AM EST 6:53 PM EST
Astronomical Twilight 5:46 AM EST 7:22 PM EST
Moon 4:43 AM EST (2/7) 3:25 PM EST (2/7)
Length of Visible Light 11h 39m
Length of Day
10h 48m
Waning Crescent, 9% of the Moon is Illuminated
Feb 7
Waning Crescent
Feb 10
New
Feb 17
First Quarter
Feb 25
Full
Mar 4
Last Quarter

Hourly Weather History & Observations

Time (EST) Temp. Dew Point Humidity Pressure Visibility Wind Dir Wind Speed Gust Speed Precip Events Conditions
12:15 AM 51.8 °F 48.2 °F 88% 30.18 in 7.0 mi Calm Calm - 0.00 in   Clear
12:35 AM 48.2 °F 46.4 °F 93% 30.18 in 5.0 mi Calm Calm - 0.00 in   Clear
12:55 AM 48.2 °F 46.4 °F 93% 30.17 in 5.0 mi Calm Calm - 0.00 in   Clear
1:15 AM 50.0 °F 48.2 °F 94% 30.17 in 7.0 mi Calm Calm - 0.00 in   Clear
1:35 AM 48.2 °F 46.4 °F 93% 30.16 in 6.0 mi Calm Calm - 0.00 in   Clear
1:55 AM 50.0 °F 48.2 °F 94% 30.16 in 8.0 mi Calm Calm - 0.00 in   Clear
2:15 AM 51.8 °F 48.2 °F 88% 30.16 in 8.0 mi Calm Calm - 0.00 in   Clear
2:35 AM 51.8 °F 48.2 °F 88% 30.16 in 8.0 mi Calm Calm - 0.00 in   Clear
2:55 AM 50.0 °F 48.2 °F 94% 30.16 in 6.0 mi NNE 3.5 mph - 0.00 in   Clear
3:15 AM 51.8 °F 50.0 °F 94% 30.15 in 6.0 mi NNE 5.8 mph - 0.00 in   Partly Cloudy
3:35 AM 53.6 °F 51.8 °F 94% 30.15 in 7.0 mi Calm Calm - 0.00 in   Clear
3:55 AM 53.6 °F 51.8 °F 94% 30.15 in 10.0 mi NNE 5.8 mph - 0.00 in   Clear
4:15 AM 53.6 °F 50.0 °F 88% 30.15 in 10.0 mi NNE 4.6 mph - 0.00 in   Clear
4:55 AM 53.6 °F 51.8 °F 94% 30.15 in 10.0 mi Calm Calm - 0.00 in   Scattered Clouds
5:15 AM 53.6 °F 51.8 °F 94% 30.15 in 10.0 mi North 4.6 mph - 0.00 in   Mostly Cloudy
5:35 AM 55.4 °F 51.8 °F 88% 30.15 in 10.0 mi Calm Calm - 0.00 in   Partly Cloudy
6:15 AM 55.4 °F 51.8 °F 88% 30.15 in 10.0 mi North 3.5 mph - 0.00 in   Overcast
6:55 AM 55.4 °F 51.8 °F 88% 30.16 in 10.0 mi North 5.8 mph - 0.00 in   Overcast
7:15 AM 55.4 °F 51.8 °F 88% 30.16 in 10.0 mi Calm Calm - 0.00 in   Overcast
7:35 AM 55.4 °F 51.8 °F 88% 30.15 in 10.0 mi North 4.6 mph - 0.00 in   Overcast
7:55 AM 55.4 °F 51.8 °F 88% 30.15 in 9.0 mi NE 9.2 mph - 0.00 in   Overcast
8:15 AM 55.4 °F 53.6 °F 94% 30.16 in 9.0 mi NE 8.1 mph - 0.00 in   Mostly Cloudy
8:35 AM 55.4 °F 53.6 °F 94% 30.15 in 8.0 mi NE 9.2 mph - 0.00 in   Overcast
8:55 AM 57.2 °F 53.6 °F 88% 30.15 in 8.0 mi NE 6.9 mph - 0.00 in   Overcast
9:15 AM 57.2 °F 53.6 °F 88% 30.15 in 7.0 mi NE 8.1 mph - 0.00 in   Overcast
9:35 AM 57.2 °F 53.6 °F 88% 30.15 in 6.0 mi NE 10.4 mph - 0.00 in   Light Drizzle
9:55 AM 57.2 °F 55.4 °F 94% 30.14 in 5.0 mi ENE 11.5 mph - 0.00 in   Light Drizzle
10:15 AM 59.0 °F 55.4 °F 88% 30.14 in 5.0 mi ENE 10.4 mph 18.4 mph 0.00 in   Mostly Cloudy
10:35 AM 60.8 °F 55.4 °F 82% 30.13 in 6.0 mi ENE 15.0 mph - 0.00 in   Mostly Cloudy
10:55 AM 60.8 °F 55.4 °F 82% 30.12 in 7.0 mi ENE 15.0 mph 20.7 mph 0.00 in   Overcast
11:35 AM 60.8 °F 55.4 °F 82% 30.10 in 7.0 mi ENE 15.0 mph - 0.00 in   Overcast
11:55 AM 60.8 °F 55.4 °F 82% 30.09 in 6.0 mi ENE 15.0 mph 23.0 mph 0.00 in   Overcast
12:15 PM 60.8 °F 55.4 °F 82% 30.08 in 5.0 mi ENE 13.8 mph 20.7 mph 0.00 in Rain Light Rain
12:35 PM 59.0 °F 57.2 °F 94% 30.07 in 1.5 mi ENE 17.3 mph 21.9 mph 0.00 in   Overcast
12:55 PM 59.0 °F 57.2 °F 94% 30.07 in 2.0 mi ENE 11.5 mph - 0.02 in   Overcast
1:15 PM 59.0 °F 57.2 °F 94% 30.06 in 1.8 mi NE 10.4 mph - 0.02 in Rain Light Rain
1:35 PM 59.0 °F 57.2 °F 94% 30.05 in 1.2 mi NE 10.4 mph - 0.07 in Rain Rain
1:55 PM 57.2 °F 55.4 °F 94% 30.04 in 1.5 mi NE 12.7 mph - 0.14 in Rain Rain
2:15 PM 57.2 °F 55.4 °F 94% 30.03 in 1.2 mi NE 12.7 mph 16.1 mph 0.05 in Rain Rain
2:35 PM 57.2 °F 55.4 °F 94% 30.02 in 1.5 mi ENE 10.4 mph - 0.11 in Rain Rain
2:55 PM 57.2 °F 55.4 °F 94% 30.01 in 1.2 mi NE 16.1 mph 19.6 mph 0.21 in Rain Rain
3:15 PM 57.2 °F 55.4 °F 94% 30.00 in 1.2 mi NE 12.7 mph - 0.08 in Rain Heavy Rain
3:35 PM 55.4 °F 55.4 °F 100% 29.99 in 1.8 mi NE 12.7 mph - 0.12 in Rain Rain
4:15 PM 55.4 °F 55.4 °F 100% 29.98 in 2.0 mi NE 11.5 mph - 0.02 in   Overcast
4:35 PM 55.4 °F 55.4 °F 100% 29.97 in 2.0 mi NE 12.7 mph - 0.05 in Rain Rain
4:55 PM 55.4 °F 55.4 °F 100% 29.96 in 3.0 mi NE 13.8 mph - 0.06 in Rain Light Rain
5:15 PM 55.4 °F 55.4 °F 100% 29.95 in 2.0 mi NE 12.7 mph - 0.01 in Rain Rain
5:35 PM 55.4 °F 55.4 °F 100% 29.93 in 2.0 mi NE 15.0 mph 18.4 mph 0.03 in Rain Light Rain
5:55 PM 55.4 °F 55.4 °F 100% 29.92 in 5.0 mi NE 17.3 mph 21.9 mph 0.04 in Rain Light Rain
6:15 PM 55.4 °F 55.4 °F 100% 29.91 in 5.0 mi NE 12.7 mph 19.6 mph 0.01 in Rain Light Rain
6:35 PM 57.2 °F 55.4 °F 94% 29.91 in 3.0 mi NNE 12.7 mph 17.3 mph 0.02 in Rain Rain
6:55 PM 57.2 °F 55.4 °F 94% 29.90 in 5.0 mi NNE 9.2 mph - 0.04 in Rain Light Rain
7:15 PM 57.2 °F 55.4 °F 94% 29.89 in 3.0 mi NNE 10.4 mph - 0.01 in Rain Light Rain
7:35 PM 57.2 °F 55.4 °F 94% 29.87 in 10.0 mi NE 11.5 mph - 0.02 in   Overcast
7:55 PM 57.2 °F 55.4 °F 94% 29.86 in 1.2 mi NNE 8.1 mph - 0.13 in Rain Heavy Rain
8:35 PM 57.2 °F 55.4 °F 94% 29.86 in 3.0 mi WSW 6.9 mph - 0.10 in   Overcast
8:55 PM 57.2 °F 55.4 °F 94% 29.83 in 5.0 mi NE 6.9 mph - 0.13 in   Overcast
9:15 PM 57.2 °F 55.4 °F 94% 29.84 in 3.0 mi Calm Calm - 0.05 in Rain Rain
9:35 PM 57.2 °F 55.4 °F 94% 29.82 in 2.5 mi NE 10.4 mph 16.1 mph 0.11 in Rain Light Rain
9:55 PM 57.2 °F 55.4 °F 94% 29.81 in 2.0 mi NE 10.4 mph - 0.19 in Rain Rain
10:15 PM 57.2 °F 55.4 °F 94% 29.79 in 3.0 mi NE 10.4 mph - 0.01 in Rain Light Rain
10:35 PM 57.2 °F 55.4 °F 94% 29.78 in 9.0 mi East 3.5 mph - 0.01 in   Overcast
11:15 PM 57.2 °F 55.4 °F 94% 29.74 in 10.0 mi North 5.8 mph - 0.00 in   Light Drizzle
11:35 PM 57.2 °F 55.4 °F 94% 29.73 in 7.0 mi Calm Calm - 0.01 in   Light Drizzle
11:55 PM 57.2 °F 55.4 °F 94% 29.72 in 10.0 mi Calm Calm - 0.01 in   Overcast